Flag for Norway Weather past 2 weeks in Sandefjord, Norway

Now
48 °F

Sunny.


Feels Like: 46 °F
Forecast: 42 / 60 °F
Wind: 6 mph from South

Location: Torp

Current Time: Apr 18, 2015 at 11:44:45 AM

Latest Report: Apr 18, 2015 at 10:50 AM


Visibility: 10 mi

Pressure: 30.24 "Hg

Humidity: 54%

Dew point: 32 °F

Location of SandefjordLocation

Historic Weather in Sandefjord — Graph

°F

Sandefjord temperature yesterday

Maximum temperature yesterday: 54 °F (at 1:20 PM)
Minimum temperature yesterday: 39 °F (at 2:50 AM)
Average temperature yesterday: 47 °F

Past Weeks' High & Low Weather Summary

 TemperatureHumidityPressure
High61 °F (Apr 7, 3:50 PM)100% (Apr 10, 8:20 PM)30.45 "Hg (Apr 10, 8:20 PM)
Low28 °F (Apr 5, 4:20 AM)22% (Apr 8, 2:20 PM)29.45 "Hg (Apr 15, 5:20 PM)
Average43 °F61%30.01 "Hg
* Reported Apr 3 10:20 AM — Apr 18 10:20 AM, Sandefjord, Weather by CustomWeather, © 2015

Note: Actual official high and low records may vary slightly from our data, if they occured in-between our weather recording intervals... More about our weather records

Advertising

Sandefjord weather history for previous 24 hours

 ConditionsComfort  
Time TempWeatherWind HumidityBarometerVisibility
10:20 AM
Sat, Apr 18
48 °FSunny.5 mph54%30.24 "Hg10 mi
9:50 AM48 °FSunny.6 mph54%30.24 "Hg10 mi
9:20 AM48 °FPassing clouds.3 mph54%30.27 "HgN/A
8:50 AM46 °FPassing clouds.3 mph57%30.27 "HgN/A
8:20 AM43 °FSunny.3 mph66%30.27 "Hg10 mi
7:50 AM41 °FSunny.1 mph66%30.27 "Hg10 mi
7:20 AM37 °FSunny.1 mph75%30.27 "Hg10 mi
6:50 AM36 °FClear.2 mph75%30.27 "Hg10 mi
6:20 AM36 °FClear.1 mph75%30.30 "Hg10 mi
5:50 AM36 °FClear.2 mph75%30.30 "Hg10 mi
5:20 AM36 °FChilly.1 mph75%30.30 "HgN/A
4:50 AM36 °FChilly.2 mph75%30.30 "HgN/A
4:20 AM39 °FChilly.5 mph65%30.30 "HgN/A
3:50 AM39 °FChilly.3 mph65%30.30 "HgN/A
3:20 AM39 °FChilly.3 mph65%30.30 "HgN/A
2:50 AM41 °FQuite cool.3 mph61%30.30 "HgN/A
2:20 AM41 °FQuite cool.3 mph61%30.30 "HgN/A
1:50 AM41 °FQuite cool.3 mph61%30.30 "HgN/A
1:20 AM41 °FQuite cool.3 mph61%30.30 "HgN/A
12:50 AM43 °FQuite cool.5 mph57%30.30 "HgN/A
12:20 AM43 °FQuite cool.5 mph57%30.27 "HgN/A
11:50 PM
Fri, Apr 17
43 °FQuite cool.2 mph57%30.27 "HgN/A
11:20 PM43 °FQuite cool.7 mph57%30.27 "HgN/A
10:50 PM46 °FClear.8 mph50%30.24 "Hg10 mi
10:20 PM45 °FClear.5 mph53%30.24 "Hg10 mi
9:50 PM45 °FClear.7 mph53%30.24 "Hg10 mi
9:20 PM46 °FSunny.3 mph53%30.21 "Hg10 mi
8:50 PM48 °FPassing clouds.5 mph50%30.21 "HgN/A
8:20 PM48 °FSunny.8 mph46%30.18 "Hg10 mi
7:50 PM50 °FSunny.9 mph43%30.18 "Hg10 mi
7:20 PM52 °FPassing clouds.9 mph41%30.15 "HgN/A
6:50 PM52 °FPassing clouds.9 mph41%30.15 "HgN/A
6:20 PM54 °FPassing clouds.9 mph41%30.15 "HgN/A
5:50 PM52 °FPassing clouds.10 mph41%30.12 "HgN/A
5:20 PM54 °FSunny.12 mph38%30.12 "Hg10 mi
4:50 PM52 °FPassing clouds.14 mph41%30.12 "HgN/A
4:20 PM54 °FPassing clouds.13 mph38%30.12 "HgN/A
3:50 PM54 °FSunny.12 mph38%30.09 "Hg10 mi
3:20 PM54 °FPassing clouds.13 mph38%30.09 "HgN/A
2:50 PM54 °FPassing clouds.15 mph41%30.09 "HgN/A
2:20 PM52 °FSunny.17 mph41%30.09 "Hg10 mi
1:50 PM54 °FSunny.16 mph41%30.07 "Hg10 mi
1:20 PM54 °FPassing clouds.18 mph41%30.07 "HgN/A
12:50 PM52 °FSunny.22 mph41%30.07 "Hg10 mi
12:20 PM52 °FPassing clouds.18 mph41%30.07 "HgN/A
11:50 AM52 °FSunny.22 mph44%30.07 "Hg10 mi
11:20 AM50 °FPassing clouds.17 mph43%30.04 "HgN/A
Weather by CustomWeather, © 2015

See weather overviewHow to use our weather pages